Flag for China Weather past 2 weeks in Shenzhen, Guangdong, China

Now
81 °F

Passing clouds.


Feels Like: 82 °F
Forecast: 70 / 82 °F
Wind: 1 mph from North

Location: Shenzhen Airport

Current Time: Oct 23, 2014 at 4:20:33 PM

Latest Report: Oct 23, 2014 at 4:00 PM


Visibility: 5 mi

Pressure: 29.98 "Hg

Humidity: 58%

Dew point: 64 °F

Location of ShenzhenLocation

Historic Weather in Shenzhen — Graph

°F

Shenzhen temperature yesterday

Maximum temperature yesterday: 88 °F (at 1:00 PM)
Minimum temperature yesterday: 79 °F (at 4:00 AM)
Average temperature yesterday: 83 °F

Past Weeks' High & Low Weather Summary

 TemperatureHumidityPressure
High91 °F (Oct 11, 3:00 PM)89% (Oct 20, 5:00 AM)30.12 "Hg (Oct 20, 5:00 AM)
Low70 °F (Oct 15, 6:00 AM)38% (Oct 8, 4:00 PM)29.77 "Hg (Oct 9, 3:00 PM)
Average80 °F58%29.97 "Hg
* Reported Oct 8 3:00 PM — Oct 23 3:00 PM, Shenzhen, Weather by CustomWeather, © 2014

Note: Actual official high and low records may vary slightly from our data, if they occured in-between our weather recording intervals... More about our weather records

Advertising

Shenzhen weather history for previous 24 hours

 ConditionsComfort  
Time TempWeatherWind HumidityBarometerVisibility
3:00 PM
Oct 23
81 °FPartly sunny.3 mph58%29.98 "Hg5 mi
2:00 PM79 °FPartly sunny.6 mph61%29.98 "Hg5 mi
1:00 PM81 °FScattered clouds.6 mph54%30.01 "Hg5 mi
12:00 PM81 °FScattered clouds.6 mph51%30.04 "HgN/A
11:00 AM79 °FMostly cloudy.6 mph54%30.07 "HgN/A
10:00 AM79 °FOvercast.8 mph54%30.07 "HgN/A
9:00 AM77 °FPartly sunny.6 mph61%30.07 "HgN/A
8:00 AM73 °FPartly sunny.6 mph74%30.04 "HgN/A
7:00 AM75 °FPartly sunny.3 mph69%30.04 "HgN/A
6:00 AM73 °FPassing clouds.3 mph74%30.01 "HgN/A
5:00 AM75 °FPassing clouds.8 mph65%29.98 "HgN/A
4:00 AM79 °FPassing clouds.6 mph54%29.98 "HgN/A
3:00 AM79 °FPassing clouds.8 mph54%29.98 "HgN/A
2:00 AM79 °FPassing clouds.10 mph54%29.98 "HgN/A
1:00 AM81 °FPassing clouds.8 mph54%30.01 "HgN/A
12:00 AM81 °FPassing clouds.6 mph54%30.01 "HgN/A
11:00 PM
Oct 22
81 °FPassing clouds.6 mph58%30.01 "HgN/A
10:00 PM82 °FPassing clouds.6 mph55%30.01 "HgN/A
9:00 PM82 °FPassing clouds.8 mph55%30.01 "HgN/A
8:00 PM82 °FPassing clouds.10 mph55%30.01 "HgN/A
7:00 PM82 °FClear.13 mph55%29.98 "Hg10 mi
6:00 PM84 °FClear.13 mph51%29.95 "Hg10 mi
5:00 PM84 °FSunny.13 mph51%29.95 "Hg10 mi
4:00 PM86 °FSunny.13 mph49%29.95 "Hg10 mi
Weather by CustomWeather, © 2014

See weather overviewHow to use our weather pages